Weather reports worldwide

Advertisment
Hoyerswerda, Germany (10495): temperature & dewpoint: 13.01.2021 07:00:00 - 19.01.2021 07:00:00 (CET)Hoyerswerda, Germany (10495): temperature 5cm & temperature -5cm: 13.01.2021 07:00:00 - 19.01.2021 07:00:00 (CET)Hoyerswerda, Germany (10495): temperature -20cm & temperature -100cm: 13.01.2021 07:00:00 - 19.01.2021 07:00:00 (CET)Hoyerswerda, Germany (10495): wind speed & gusts: 13.01.2021 07:00:00 - 19.01.2021 07:00:00 (CET)Hoyerswerda, Germany (10495): wind direction: 13.01.2021 07:00:00 - 19.01.2021 07:00:00 (CET)Hoyerswerda, Germany (10495): reduced air pressure: 13.01.2021 07:00:00 - 19.01.2021 07:00:00 (CET)Hoyerswerda, Germany (10495): visibility: 13.01.2021 07:00:00 - 19.01.2021 07:00:00 (CET)Hoyerswerda, Germany (10495): sunshine duration: 13.01.2021 07:00:00 - 19.01.2021 07:00:00 (CET)Hoyerswerda, Germany (10495): precipitation: 13.01.2021 07:00:00 - 19.01.2021 07:00:00 (CET)
Date & Time tt [°C] td [°C] tt 5cm [°C] tt -5cm [°C] tt -20cm [°C] tt -100cm [°C] ff [km/h] ff [kn] fx [km/h] fx [kn] dd ppp [hPa] vv [km] sd [min] rr [mm]
19.01.2021 07:00:00 2,4 0,6 1,3 0,2 0,9 3,5 14 8 22 12 SW 1015,7 26 0 0,0
19.01.2021 06:00:00 2,4 0,8 1,3 0,2 0,9 3,5 15 8 27 15 SW 1016,1 44 0 0,0
19.01.2021 05:00:00 2,3 0,9 1,1 0,2 0,9 3,5 17 9 26 14 WSW 1016,3 41 0 0,0
19.01.2021 04:00:00 2,3 1,0 1,2 0,2 0,9 3,5 16 9 26 14 WSW 1016,7 35 0 0,0
19.01.2021 03:00:00 2,2 1,1 1,1 0,2 0,9 3,5 20 11 34 19 WSW 1017,0 30 0 0,0
19.01.2021 02:00:00 1,9 1,1 0,9 0,2 0,9 3,5 18 10 42 23 WSW 1017,3 15 0 0,2
19.01.2021 01:00:00 1,8 1,0 0,8 0,2 0,9 3,5 26 14 38 21 WSW 1017,5 13 0 0,1
19.01.2021 00:00:00 2,1 1,1 0,9 0,2 0,9 3,5 24 13 39 21 WSW 1017,7 22 0 0,0
18.01.2021 23:00:00 1,8 1,0 0,7 0,2 0,9 3,5 27 15 39 21 WSW 1017,8 20 0 0,2
18.01.2021 22:00:00 1,9 1,1 0,5 0,2 0,9 3,5 22 12 33 18 WSW 1018,1 18 0 0,1
18.01.2021 21:00:00 1,7 1,0 0,1 0,2 0,9 3,5 19 10 31 17 WSW 1018,5 9 0 0,2
18.01.2021 20:00:00 1,6 0,9 0,0 0,2 0,9 3,5 16 9 27 15 WSW 1018,7 12 0 0,2
18.01.2021 19:00:00 1,5 0,7 0,0 0,2 0,9 3,5 16 9 26 14 WSW 1018,9 10 0 0,2
18.01.2021 18:00:00 1,9 0,5 0,0 0,2 0,9 3,5 14 8 22 12 WSW 1019,0 22 0 0,0
18.01.2021 17:00:00 2,0 0,5 0,0 0,2 0,9 3,5 14 8 20 11 SW 1019,1 28 0 0,0
18.01.2021 16:00:00 1,9 0,7 0,0 0,2 0,9 3,6 13 7 26 14 WSW 1019,4 22 0 0,0
18.01.2021 15:00:00 1,7 0,7 0,0 0,2 0,9 3,6 14 8 24 13 WSW 1019,8 16 0 0,0
18.01.2021 14:00:00 1,5 0,5 0,0 0,2 0,9 3,6 16 8 25 13 W 1019,7 10 0 0,1
18.01.2021 13:00:00 0,1 -0,5 0,0 0,2 0,9 3,6 5 3 9 5 W 1020,1 3,7 0 0,1
18.01.2021 12:00:00 -1,0 -2,1 0,0 0,2 0,9 3,6 2 1 7 4 SW 1020,5 2,9 0 0,0
18.01.2021 11:00:00 -2,5 -3,6 -0,2 0,2 0,9 3,6 4 2 6 3 SSE 1021,0 8 0 0,1
18.01.2021 10:00:00 -3,9 -4,9 -1,3 0,2 0,9 3,6 4 2 7 4 S 1021,2 10 0 0,0
18.01.2021 09:00:00 -5,0 -5,8 -2,2 0,2 0,9 3,6 3 2 6 4 S 1021,5 13 0 0,0
18.01.2021 08:00:00 -5,8 -6,8 -3,0 0,2 0,9 3,6 3 1 6 3 SE 1021,2 8 0 0,0
18.01.2021 07:00:00 -6,6 -7,9 -3,1 0,2 0,9 3,6 3 2 9 5 S 1021,4 17 0 0,0
18.01.2021 06:00:00 -7,4 -8,4 -4,6 0,2 0,9 3,6 4 2 8 4 SE 1021,3 12 0 0,0
18.01.2021 05:00:00 -8,3 -9,3 -6,2 0,2 0,9 3,6 6 3 8 4 ESE 1021,6 12 0 0,0
18.01.2021 04:00:00 -9,1 -9,9 -9,3 0,2 0,9 3,6 5 3 8 4 ESE 1021,9 10 0 0,0
18.01.2021 03:00:00 -8,9 -9,6 -8,5 0,2 0,9 3,6 5 3 7 4 ESE 1022,1 9 0 0,0
18.01.2021 02:00:00 -8,3 -9,0 -9,1 0,2 0,9 3,6 6 3 9 5 ESE 1022,5 8 0 0,0
18.01.2021 01:00:00 -7,6 -8,3 -9,2 0,2 1,0 3,6 7 4 10 5 ESE 1022,6 8 0 0,0
18.01.2021 00:00:00 -6,9 -7,3 -9,0 0,2 1,0 3,6 6 3 8 4 SE 1023,2 7 0 0,0
17.01.2021 23:00:00 -6,2 -6,6 -8,4 0,2 1,0 3,6 6 3 9 5 SE 1022,9 10 0 0,0
17.01.2021 22:00:00 -4,4 -5,5 -6,3 0,3 1,0 3,6 7 4 9 5 E 1022,8 13 0 0,0
17.01.2021 21:00:00 -3,5 -5,0 -3,8 0,3 1,0 3,6 6 3 8 5 SE 1022,9 17 0 0,0
17.01.2021 20:00:00 -3,2 -4,8 -3,4 0,3 1,0 3,6 6 4 9 5 ESE 1022,9 18 0 0,0
17.01.2021 19:00:00 -2,9 -4,7 -2,8 0,3 1,0 3,6 5 3 12 7 E 1022,7 19 0 0,0
17.01.2021 18:00:00 -2,2 -5,5 -2,4 0,3 1,0 3,6 4 2 13 7 ENE 1022,0 38 0 0,0
17.01.2021 17:00:00 -2,1 -5,7 -2,1 0,4 1,0 3,6 5 3 9 5 NE 1021,4 49 0 0,0
17.01.2021 16:00:00 -1,9 -5,8 -1,6 0,4 1,0 3,6 5 3 9 5 NE 1021,2 55 0 0,0
17.01.2021 15:00:00 -1,8 -5,7 -0,7 0,4 1,0 3,6 5 3 9 5 N 1020,8 42 0 0,0
17.01.2021 14:00:00 -1,8 -5,5 -0,4 0,4 1,0 3,6 4 2 11 6 NNW 1020,6 40 0 0,0
17.01.2021 13:00:00 -1,9 -5,6 -0,2 0,4 1,0 3,6 5 3 12 6 N 1020,5 49 0 0,0
17.01.2021 12:00:00 -2,1 -5,8 -0,1 0,4 1,0 3,6 6 3 9 5 W 1020,2 40 0 0,0
17.01.2021 11:00:00 -2,5 -5,8 -0,7 0,3 1,0 3,6 5 3 9 5 W 1020,1 34 0 0,0
17.01.2021 10:00:00 -3,1 -6,0 -1,1 0,3 1,0 3,6 8 4 12 6 W 1019,6 40 0 0,0
17.01.2021 09:00:00 -3,4 -6,0 -1,7 0,3 1,0 3,6 6 4 8 4 WSW 1019,3 32 0 0,0
17.01.2021 08:00:00 -3,5 -6,2 -2,4 0,3 1,0 3,6 4 2 9 5 W 1019,1 36 0 0,0
17.01.2021 07:00:00 -3,6 -6,5 -2,2 0,3 1,0 3,6 6 4 10 5 W 1018,7 43 0 0,0
17.01.2021 06:00:00 -3,5 -6,8 -2,6 0,3 1,0 3,6 6 4 12 7 NNW 1018,5 45 0 0,0
17.01.2021 05:00:00 -3,7 -6,9 -2,6 0,3 1,0 3,6 11 6 19 11 W 1018,2 47 0 0,0
17.01.2021 04:00:00 -3,4 -6,8 -1,3 0,3 1,0 3,6 14 8 21 11 W 1018,3 43 0 0,0
17.01.2021 03:00:00 -3,3 -6,6 -1,4 0,3 1,0 3,6 12 7 16 9 W 1018,7 42 0 0,0
17.01.2021 02:00:00 -3,2 -6,4 -1,4 0,3 1,0 3,6 12 6 19 11 W 1019,3 39 0 0,0
17.01.2021 01:00:00 -3,0 -6,5 -1,5 0,3 1,0 3,6 12 7 18 10 W 1019,5 41 0 0,0
17.01.2021 00:00:00 -2,9 -6,4 -1,7 0,3 1,0 3,7 13 7 17 9 W 1020,2 39 0 0,0
16.01.2021 23:00:00 -2,9 -6,2 -1,4 0,3 1,0 3,7 14 8 22 12 W 1020,0 38 0 0,0
16.01.2021 22:00:00 -2,9 -6,3 -1,5 0,3 1,0 3,7 16 9 27 15 W 1020,2 42 0 0,0
16.01.2021 21:00:00 -2,9 -6,1 -1,0 0,3 1,0 3,7 19 11 27 14 W 1020,2 38 0 0,0
16.01.2021 20:00:00 -3,0 -5,8 -1,4 0,3 1,0 3,7 16 8 21 11 W 1020,6 33 0 0,0
16.01.2021 19:00:00 -3,0 -5,6 -1,5 0,3 1,0 3,7 14 7 26 14 W 1020,9 34 0 0,0
16.01.2021 18:00:00 -3,0 -5,5 -1,9 0,3 1,0 3,7 16 9 23 12 W 1021,2 26 0 0,0
16.01.2021 17:00:00 -2,9 -5,5 -1,6 0,3 1,0 3,7 18 10 31 17 W 1021,6 27 0 0,0
16.01.2021 16:00:00 -2,7 -5,5 -0,7 0,3 1,0 3,7 18 10 29 16 W 1021,7 28 0 0,0
16.01.2021 15:00:00 -2,8 -5,6 -0,9 0,4 1,0 3,7 21 12 31 17 W 1022,1 29 0 0,0
16.01.2021 14:00:00 -3,0 -5,4 -0,9 0,3 1,0 3,7 21 11 31 17 W 1022,6 15 0 0,0
16.01.2021 13:00:00 -2,8 -5,4 -0,6 0,4 1,0 3,7 21 12 31 17 W 1023,0 17 0 0,0
16.01.2021 12:00:00 -3,0 -5,1 -0,5 0,3 1,0 3,7 19 11 29 16 W 1023,6 16 0 0,0
16.01.2021 11:00:00 -3,4 -5,2 -0,4 0,3 1,0 3,7 16 9 24 13 W 1024,3 25 0 0,0
16.01.2021 10:00:00 -4,0 -5,5 -0,6 0,3 1,0 3,7 15 8 21 12 W 1024,6 4,7 0 0,1
16.01.2021 09:00:00 -4,3 -6,1 -0,9 0,3 1,0 3,7 16 9 21 11 W 1025,1 5 0 0,0
16.01.2021 08:00:00 -4,4 -6,8 -1,4 0,3 1,0 3,7 14 8 20 11 W 1025,3 17 0 0,0
16.01.2021 07:00:00 -4,9 -7,5 -2,6 0,3 1,0 3,7 11 6 17 9 W 1025,6 50 0 0,0
16.01.2021 06:00:00 -4,5 -7,9 -2,7 0,3 1,0 3,7 14 8 19 11 W 1025,9 49 0 0,0
16.01.2021 05:00:00 -4,2 -7,3 -2,9 0,3 1,0 3,7 13 7 22 12 WNW 1026,0 44 0 0,0
16.01.2021 04:00:00 -4,0 -7,0 -3,0 0,3 1,0 3,7 15 8 29 16 WNW 1026,2 18 0 0,0
16.01.2021 03:00:00 -3,5 -6,8 -3,6 0,3 1,0 3,7 21 11 29 16 WNW 1026,1 14 0 0,0
16.01.2021 02:00:00 -3,4 -7,0 -3,6 0,3 1,0 3,7 14 7 25 13 WNW 1026,0 73 0 0,0
16.01.2021 01:00:00 -3,4 -7,7 -4,1 0,3 1,0 3,7 16 9 30 16 NW 1025,9 57 0 0,0
16.01.2021 00:00:00 -3,5 -7,3 -3,4 0,3 1,0 3,7 20 11 29 16 NNW 1026,0 70 0 0,0
15.01.2021 23:00:00 -3,1 -5,7 -2,3 0,3 1,0 3,7 14 7 21 11 NNW 1025,7 54 0 0,0
15.01.2021 22:00:00 -2,5 -5,3 -1,4 0,3 1,0 3,7 12 6 25 13 N 1025,5 40 0 0,0
15.01.2021 21:00:00 -2,0 -4,3 -1,5 0,3 1,0 3,7 15 8 25 14 N 1025,1 44 0 0,0
15.01.2021 20:00:00 -1,3 -2,3 -1,4 0,3 1,0 3,7 13 7 24 13 NW 1024,5 12 0 0,0
15.01.2021 19:00:00 -1,2 -2,5 -1,3 0,3 1,0 3,7 20 11 28 15 NNW 1024,3 14 0 0,0
15.01.2021 18:00:00 -1,1 -2,2 -1,2 0,3 1,0 3,7 18 10 29 16 NW 1023,7 11 0 0,0
15.01.2021 17:00:00 -1,1 -2,3 -1,2 0,3 1,0 3,7 14 8 26 14 NW 1023,4 9 0 0,1
15.01.2021 16:00:00 -1,1 -2,5 -1,2 0,2 1,0 3,7 16 9 24 13 NW 1023,0 18 0 0,4
15.01.2021 15:00:00 -0,9 -1,7 -0,6 0,2 1,0 3,8 13 7 21 12 NNW 1022,5 4,3 0 0,0
15.01.2021 14:00:00 -0,7 -2,0 -0,4 0,2 1,0 3,8 16 9 28 15 NNW 1022,3 39 0 0,1
15.01.2021 13:00:00 -0,3 -1,4 0,0 0,2 1,0 3,8 15 8 22 12 NW 1022,4 10 0 0,2
15.01.2021 12:00:00 -0,6 -1,3 -0,2 0,2 1,0 3,8 16 9 24 13 NNW 1022,4 2,7 0 0,2
15.01.2021 11:00:00 -0,3 -1,4 -0,5 0,2 1,0 3,8 20 11 28 15 NNW 1022,4 3,4 0 0,3
15.01.2021 10:00:00 0,0 -0,5 -0,2 0,2 1,0 3,8 12 7 18 10 NW 1021,9 5 0 0,3
15.01.2021 09:00:00 0,1 -0,6 -0,3 0,2 1,0 3,8 14 7 19 10 NNW 1021,7 7 0 0,0
15.01.2021 08:00:00 0,3 -0,7 -0,3 0,2 1,0 3,8 6 3 13 7 NNW 1021,2 13 0 0,0
15.01.2021 07:00:00 0,4 -0,5 -0,2 0,2 1,0 3,8 8 5 17 9 NNW 1020,5 24 0 0,0
15.01.2021 06:00:00 0,5 -0,3 0,0 0,2 1,0 3,8 10 5 16 9 NNW 1020,1 22 0 0,0
15.01.2021 05:00:00 0,5 -0,1 0,0 0,2 1,0 3,8 10 6 21 11 NNW 1019,9 18 0 0,0
15.01.2021 04:00:00 0,4 0,0 0,0 0,2 1,0 3,8 14 8 20 11 NW 1019,8 7 0 0,1
15.01.2021 03:00:00 0,4 -0,1 -0,1 0,2 1,0 3,8 8 5 14 8 WNW 1019,9 7 0 0,0
15.01.2021 02:00:00 0,6 -0,4 -0,1 0,1 1,0 3,8 10 6 16 9 NW 1019,8 18 0 0,0
15.01.2021 01:00:00 0,6 -0,2 -0,1 0,1 1,0 3,8 10 5 14 8 NW 1019,5 15 0 0,0
15.01.2021 00:00:00 0,5 -0,3 -0,1 0,1 1,0 3,8 11 6 15 8 NNW 1019,7 16 0 0,0
14.01.2021 23:00:00 0,7 -0,2 0,0 0,1 1,0 3,8 10 6 16 8 NW 1019,6 17 0 0,0
14.01.2021 22:00:00 0,8 -0,2 0,0 0,1 1,0 3,8 10 5 16 9 NW 1019,5 19 0 0,0
14.01.2021 21:00:00 1,0 -0,2 0,0 0,1 1,0 3,8 11 6 20 11 NNW 1019,2 23 0 0,0
14.01.2021 20:00:00 0,9 0,0 0,0 0,1 1,0 3,8 12 6 22 12 NW 1019,0 22 0 0,0
14.01.2021 19:00:00 0,9 0,0 0,0 0,1 1,0 3,8 18 10 26 14 NW 1018,6 20 0 0,0
14.01.2021 18:00:00 0,8 -0,1 0,0 0,1 1,0 3,8 16 9 27 15 WNW 1018,2 14 0 0,1
14.01.2021 17:00:00 1,1 -0,6 0,0 0,1 0,9 3,8 17 9 28 15 WNW 1017,8 41 0 0,0
14.01.2021 16:00:00 1,1 -0,8 0,0 0,1 0,9 3,8 18 10 26 14 WNW 1017,2 51 8 0,0
14.01.2021 15:00:00 1,2 -0,6 0,0 0,1 0,9 3,8 16 9 22 12 WNW 1016,8 40 0 0,0
14.01.2021 14:00:00 1,0 -1,6 0,3 0,1 0,9 3,9 16 8 23 12 WNW 1016,4 56 8 0,0
14.01.2021 13:00:00 0,8 -1,6 0,1 0,1 0,9 3,9 16 8 29 16 NNW 1016,2 31 6 0,0
14.01.2021 12:00:00 0,6 -0,8 0,0 0,1 0,9 3,9 20 11 28 15 NW 1015,9 28 0 0,0
14.01.2021 11:00:00 0,7 -0,4 0,0 0,1 0,9 3,9 19 10 29 16 NNW 1014,7 24 0 0,0
14.01.2021 10:00:00 0,5 -0,2 -0,1 0,1 0,9 3,9 15 8 27 14 NNW 1013,3 18 0 0,0
14.01.2021 09:00:00 0,1 -0,5 -0,3 0,1 0,9 3,9 18 10 29 16 NW 1011,9 4,0 0 0,0
14.01.2021 08:00:00 -0,2 -1,0 -0,6 0,1 0,9 3,9 18 10 25 13 NNW 1010,2 36 0 0,0
14.01.2021 07:00:00 -0,3 -1,3 -0,9 0,1 0,9 3,9 15 8 33 18 N 1008,2 56 0 0,0
14.01.2021 06:00:00 -0,2 -0,9 -0,7 0,1 0,9 3,9 21 11 26 14 NNW 1006,3 19 0 0,5
14.01.2021 05:00:00 -0,9 -1,2 -0,9 0,1 0,9 3,9 17 9 28 15 W 1004,8 0,7 0 0,8
14.01.2021 04:00:00 -0,8 -1,9 -1,2 0,1 0,9 3,9 22 12 43 23 W 1004,5 2,4 0 0,1
14.01.2021 03:00:00 -0,7 -2,4 -1,4 0,1 0,9 3,9 27 15 41 22 W 1004,5 21 0 0,0
14.01.2021 02:00:00 -0,8 -2,5 -1,4 0,1 0,9 3,9 21 11 40 22 W 1004,3 12 0 0,0
14.01.2021 01:00:00 -0,1 -2,3 -1,0 0,1 0,9 3,9 22 12 38 20 W 1004,6 56 0 0,0
14.01.2021 00:00:00 0,2 -0,9 -0,7 0,1 0,9 3,9 25 13 34 18 W 1004,3 54 0 0,0
13.01.2021 23:00:00 0,3 -0,8 -0,2 0,1 0,9 3,9 22 12 39 21 W 1004,1 53 0 0,0
13.01.2021 22:00:00 0,4 -0,3 0,0 0,1 0,9 3,9 23 12 51 28 W 1004,1 63 0 0,6
13.01.2021 21:00:00 0,2 -0,1 0,0 0,1 0,9 3,9 29 16 48 26 W 1004,0 0,8 0 0,2
13.01.2021 20:00:00 0,6 0,0 0,0 0,1 0,9 3,9 28 15 46 25 WSW 1003,8 6 0 0,3
13.01.2021 19:00:00 2,0 -1,1 0,9 0,1 0,9 3,9 29 16 52 28 WSW 1005,0 11 0 0,0
13.01.2021 18:00:00 2,5 -0,9 1,4 0,1 0,9 3,9 33 18 48 26 WSW 1006,2 49 0 0,0
13.01.2021 17:00:00 2,3 -0,6 1,1 0,1 0,9 3,9 24 13 40 22 WSW 1007,2 48 0 0,0
13.01.2021 16:00:00 2,4 -0,5 1,1 0,1 0,9 3,9 25 14 41 22 WSW 1008,0 48 0 0,0
13.01.2021 15:00:00 2,3 -0,6 1,1 0,1 0,9 3,9 24 13 39 21 WSW 1008,5 50 1 0,0
13.01.2021 14:00:00 1,8 -0,5 0,8 0,1 0,9 4,0 27 14 39 21 W 1009,0 52 0 0,0
13.01.2021 13:00:00 1,5 -0,2 0,6 0,1 0,9 4,0 25 13 36 20 W 1009,5 13 0 0,0
13.01.2021 12:00:00 1,2 0,3 0,5 0,1 0,9 4,0 20 11 36 19 W 1010,0 16 0 0,0
13.01.2021 11:00:00 1,8 -0,8 0,6 0,1 0,9 4,0 27 15 42 23 W 1010,4 29 0 0,0
13.01.2021 10:00:00 1,7 -1,1 0,6 0,0 0,9 4,0 22 12 35 19 W 1010,3 46 0 0,0
13.01.2021 09:00:00 1,5 -0,9 0,4 0,0 0,9 4,0 22 12 39 21 W 1010,5 37 0 0,0
13.01.2021 08:00:00 1,3 -1,1 0,1 0,0 0,9 4,0 23 12 40 22 W 1010,3 41 0 0,0
13.01.2021 07:00:00 1,2 -0,5 0,2 0,0 0,9 4,0 22 12 39 21 W 1010,2 41 0 0,0

tt = temperature
td = dewpoint
tt 5cm = temperature 5cm
tt -5cm = temperature -5cm
tt -20cm = temperature -20cm
tt -100cm = temperature -100cm
ff = wind speed
fx = gusts
dd = wind direction
ppp = reduced air pressure
vv = visibility
sd = sunshine duration
rr = precipitation

Next stations